Weather History for Oskaloosa, IA

Change the Weather History Date:

Monday, February 18, 2013

  Actual Average (KOTM) Record (KOTM)
Temperature  
Mean Temperature 30 °F 28 °F  
Max Temperature 42 °F 37 °F 66 °F (1930)
Min Temperature 17 °F 19 °F -14 °F (1936)
Degree Days  
Heating Degree Days 36 37  
Month to date heating degree days 712  
Since 1 July heating degree days 4534  
Cooling Degree Days 0 0  
Month to date cooling degree days 0  
Year to date cooling degree days 0  
Moisture  
Dew Point 25 °F    
Average Humidity 75    
Maximum Humidity 88    
Minimum Humidity 66    
Precipitation  
Precipitation 0.02 in 0.05 in 0.65 in (2000)
Month to date precipitation 0.68  
Year to date precipitation 1.58  
Sea Level Pressure  
Sea Level Pressure 29.66 in    
Wind  
Wind Speed 15 mph (West)    
Max Wind Speed 33 mph    
Max Gust Speed 43 mph    
Visibility 9 miles    
Events Rain , Snow    
T = Trace of Precipitation, MM = Missing Value Source: NWS Daily Summary

Daily Weather History Graph

Daily Weather History Graph

Search for Another Location

Airport:

Trip Planner

Search our weather history database for the weather conditions in past years. The results will help you decide how hot, cold, wet, or windy it might be!

Date:

Astronomy

Feb. 18, 2013 Rise Set
Actual Time 7:00 AM CST 5:48 PM CST
Civil Twilight 6:32 AM CST 6:16 PM CST
Nautical Twilight 5:59 AM CST 6:48 PM CST
Astronomical Twilight 5:28 AM CST 7:20 PM CST
Moon 11:32 AM CST (2/18) 1:41 AM CST (2/18)
Length of Visible Light 11h 44m
Length of Day
10h 47m
First Quarter, 58% of the Moon is Illuminated
Feb 18
First Quarter
Feb 25
Full
Mar 4
Last Quarter
Mar 11
New
Mar 19
First Quarter

Hourly Weather History & Observations

Time (CST) Temp. Windchill Dew Point Humidity Pressure Visibility Wind Dir Wind Speed Gust Speed Precip Events Conditions
12:15 AM 33.3 °F 23.7 °F 24.3 °F 70% 29.71 in 10.0 mi SSE 13.8 mph - N/A   Clear
12:35 AM 33.4 °F 23.9 °F 24.8 °F 71% 29.70 in 10.0 mi SSE 13.8 mph - N/A   Clear
12:55 AM 34.2 °F 24.8 °F 25.3 °F 70% 29.70 in 10.0 mi SSE 13.8 mph - N/A   Clear
1:15 AM 34.2 °F 24.8 °F 25.5 °F 71% 29.69 in 10.0 mi SSE 13.8 mph - N/A   Clear
1:35 AM 34.0 °F 24.6 °F 25.7 °F 72% 29.67 in 10.0 mi SSE 13.8 mph - N/A   Clear
1:55 AM 34.0 °F 24.6 °F 26.1 °F 73% 29.66 in 10.0 mi SSE 13.8 mph - N/A   Clear
2:15 AM 34.0 °F 24.6 °F 26.2 °F 73% 29.65 in 10.0 mi SSE 13.8 mph 19.6 mph N/A   Clear
2:35 AM 33.8 °F 23.9 °F 26.4 °F 74% 29.65 in 10.0 mi SSE 15.0 mph - N/A   Clear
2:55 AM 34.0 °F 24.6 °F 26.6 °F 74% 29.64 in 10.0 mi SSE 13.8 mph - N/A   Clear
3:15 AM 33.8 °F 25.3 °F 27.0 °F 76% 29.63 in 10.0 mi SSE 11.5 mph - N/A   Clear
3:35 AM 33.1 °F 24.9 °F 26.8 °F 78% 29.62 in 10.0 mi SSE 10.4 mph - N/A   Clear
3:55 AM 33.3 °F 25.1 °F 27.1 °F 78% 29.61 in 10.0 mi SSE 10.4 mph - N/A   Clear
4:15 AM 33.1 °F 25.5 °F 27.0 °F 78% 29.60 in 10.0 mi SE 9.2 mph - N/A   Clear
4:35 AM 32.9 °F 24.7 °F 27.3 °F 80% 29.60 in 10.0 mi SSE 10.4 mph - N/A   Clear
4:55 AM 32.9 °F 25.3 °F 27.3 °F 80% 29.60 in 10.0 mi SSE 9.2 mph - N/A   Clear
5:15 AM 33.8 °F 25.8 °F 27.7 °F 78% 29.60 in 10.0 mi SSE 10.4 mph - N/A   Clear
5:35 AM 34.2 °F 25.7 °F 27.9 °F 78% 29.60 in 10.0 mi SSE 11.5 mph - N/A   Clear
5:55 AM 34.0 °F 26.0 °F 28.0 °F 79% 29.59 in 10.0 mi SSE 10.4 mph - N/A   Clear
6:15 AM 34.0 °F 26.0 °F 28.0 °F 79% 29.58 in 10.0 mi SSE 10.4 mph - N/A   Clear
6:35 AM 34.0 °F 26.0 °F 28.0 °F 79% 29.58 in 10.0 mi SSE 10.4 mph - N/A   Clear
6:55 AM 33.8 °F 25.8 °F 28.2 °F 80% 29.58 in 10.0 mi SSE 10.4 mph - N/A   Clear
7:15 AM 33.8 °F 25.3 °F 28.4 °F 81% 29.58 in 10.0 mi SSE 11.5 mph - N/A   Clear
7:35 AM 34.2 °F 26.2 °F 28.8 °F 81% 29.57 in 10.0 mi SSE 10.4 mph - N/A   Clear
7:55 AM 35.1 °F 27.4 °F 29.3 °F 80% 29.57 in 10.0 mi SSE 10.4 mph - N/A   Clear
8:15 AM 36.0 °F 28.5 °F 29.8 °F 78% 29.57 in 10.0 mi SSE 10.4 mph - N/A   Clear
8:35 AM 36.9 °F 31.4 °F 30.7 °F 79% 29.57 in 10.0 mi SSE 6.9 mph - N/A   Clear
8:55 AM 39.2 °F 35.0 °F 31.3 °F 73% 29.57 in 10.0 mi South 5.8 mph - N/A   Clear
9:15 AM 41.0 °F 37.1 °F 31.8 °F 70% 29.58 in 10.0 mi WSW 5.8 mph - N/A   Clear
9:35 AM 41.5 °F 37.8 °F 31.6 °F 68% 29.57 in 10.0 mi SW 5.8 mph - N/A   Clear
9:55 AM 42.8 °F 39.3 °F 32.0 °F 66% 29.58 in 10.0 mi WNW 5.8 mph - N/A   Scattered Clouds
10:15 AM 42.8 °F 38.0 °F 32.0 °F 66% 29.58 in 10.0 mi NW 8.1 mph - N/A   Mostly Cloudy
10:35 AM 42.8 °F 38.0 °F 32.0 °F 66% 29.58 in 10.0 mi WNW 8.1 mph - N/A   Overcast
10:55 AM 41.4 °F 35.7 °F 32.0 °F 69% 29.58 in 10.0 mi West 9.2 mph - N/A   Overcast
11:15 AM 40.6 °F 34.8 °F 32.0 °F 71% 29.58 in 10.0 mi WNW 9.2 mph - N/A   Overcast
11:35 AM 40.8 °F 35.6 °F 31.8 °F 70% 29.58 in 10.0 mi WNW 8.1 mph - N/A   Overcast
11:55 AM 40.3 °F 33.9 °F 32.0 °F 72% 29.57 in 10.0 mi WNW 10.4 mph - N/A   Overcast
12:15 PM 39.0 °F 31.4 °F 31.6 °F 75% 29.58 in 10.0 mi WNW 12.7 mph - N/A Rain Light Rain
12:35 PM 38.3 °F 30.9 °F 32.2 °F 79% 29.58 in 7.0 mi NW 11.5 mph - N/A   Drizzle
12:55 PM 38.3 °F 30.9 °F 32.2 °F 79% 29.58 in 10.0 mi NW 11.5 mph - N/A   Drizzle
1:15 PM 38.5 °F 31.1 °F 32.9 °F 80% 29.58 in 10.0 mi NW 11.5 mph - N/A Rain Light Rain
1:35 PM 38.7 °F 29.8 °F 32.9 °F 80% 29.58 in 10.0 mi NW 16.1 mph - N/A   Drizzle
1:55 PM 37.8 °F 26.6 °F 32.2 °F 80% 29.58 in 7.0 mi NW 24.2 mph 29.9 mph N/A Rain Light Rain
2:15 PM 36.5 °F 24.9 °F 32.0 °F 84% 29.59 in 5.0 mi NNW 24.2 mph 29.9 mph N/A Rain Light Rain
2:35 PM 35.8 °F 24.8 °F 32.0 °F 86% 29.59 in 5.0 mi NNW 20.7 mph 31.1 mph N/A Rain Light Rain
2:55 PM 35.8 °F 25.4 °F 32.0 °F 86% 29.60 in 3.0 mi NNW 18.4 mph 25.3 mph 0.01 in Rain Light Rain
3:15 PM 36.0 °F 24.7 °F 32.0 °F 86% 29.60 in 4.0 mi NNW 21.9 mph 32.2 mph 0.01 in Rain Light Rain
3:35 PM 33.8 °F 19.9 °F 30.6 °F 88% 29.61 in 3.0 mi NNW 31.1 mph 38.0 mph 0.01 in Snow Light Snow
3:55 PM 32.0 °F 18.9 °F 28.0 °F 85% 29.63 in 5.0 mi NNW 24.2 mph 36.8 mph 0.01 in Snow Light Snow
4:15 PM 32.0 °F 18.6 °F 26.8 °F 81% 29.65 in 10.0 mi NNW 25.3 mph 35.7 mph N/A   Overcast
4:35 PM 30.7 °F 16.7 °F 25.7 °F 82% 29.67 in 10.0 mi NNW 26.5 mph 35.7 mph N/A   Overcast
4:55 PM 30.2 °F 17.4 °F 26.4 °F 86% 29.69 in 5.0 mi NW 20.7 mph 29.9 mph N/A Rain Light Freezing Rain
5:15 PM 29.3 °F 15.9 °F 24.8 °F 83% 29.69 in 10.0 mi NW 21.9 mph 32.2 mph N/A   Overcast
5:35 PM 29.1 °F 14.0 °F 22.6 °F 77% 29.70 in 10.0 mi NNW 28.8 mph 35.7 mph N/A   Overcast
5:55 PM 28.8 °F 13.7 °F 21.9 °F 76% 29.71 in 10.0 mi NW 27.6 mph 33.4 mph N/A   Overcast
6:15 PM 28.0 °F 13.0 °F 21.0 °F 75% 29.73 in 10.0 mi NW 26.5 mph 29.9 mph N/A   Overcast
6:35 PM 28.2 °F 15.5 °F 21.4 °F 76% 29.74 in 10.0 mi NW 18.4 mph 27.6 mph N/A   Overcast
6:55 PM 27.9 °F 13.4 °F 20.3 °F 73% 29.75 in 10.0 mi NW 24.2 mph 35.7 mph N/A   Overcast
7:15 PM 27.1 °F 12.1 °F 19.2 °F 72% 29.76 in 10.0 mi NW 25.3 mph 35.7 mph N/A   Overcast
7:35 PM 26.6 °F 11.1 °F 18.1 °F 70% 29.77 in 10.0 mi NW 26.5 mph 35.7 mph N/A   Overcast
7:55 PM 25.7 °F 9.1 °F 17.4 °F 71% 29.78 in 10.0 mi NW 29.9 mph 40.3 mph N/A   Overcast
8:15 PM 24.8 °F 7.6 °F 16.7 °F 71% 29.80 in 10.0 mi WNW 31.1 mph 38.0 mph N/A   Overcast
8:35 PM 24.3 °F 6.6 °F 15.3 °F 69% 29.80 in 10.0 mi WNW 32.2 mph 39.1 mph N/A   Overcast
8:55 PM 23.7 °F 5.9 °F 14.7 °F 69% 29.81 in 10.0 mi WNW 32.2 mph 42.6 mph N/A   Overcast
9:15 PM 22.1 °F 3.4 °F 12.9 °F 68% 29.82 in 10.0 mi NW 33.4 mph 42.6 mph N/A   Overcast
9:35 PM 21.6 °F 3.5 °F 12.6 °F 68% 29.83 in 10.0 mi NW 29.9 mph 42.6 mph N/A   Mostly Cloudy
9:55 PM 20.3 °F 2.0 °F 11.3 °F 68% 29.85 in 10.0 mi WNW 28.8 mph 41.4 mph N/A   Scattered Clouds
10:15 PM 19.4 °F 2.8 °F 10.4 °F 68% 29.85 in 10.0 mi NW 21.9 mph 35.7 mph N/A   Clear
10:35 PM 19.4 °F 3.2 °F 11.3 °F 71% 29.86 in 10.0 mi NW 20.7 mph 32.2 mph N/A   Mostly Cloudy
10:55 PM 19.9 °F 1.8 °F 12.0 °F 71% 29.86 in 10.0 mi NW 27.6 mph 33.4 mph N/A   Overcast
11:15 PM 18.1 °F -1.8 °F 9.0 °F 67% 29.87 in 10.0 mi NW 32.2 mph 40.3 mph N/A   Mostly Cloudy
11:35 PM 17.6 °F -0.3 °F 9.7 °F 71% 29.88 in 10.0 mi WNW 24.2 mph 28.8 mph N/A   Clear
11:55 PM 17.6 °F -2.2 °F 10.2 °F 73% 29.88 in 10.0 mi WNW 31.1 mph 36.8 mph N/A Snow Light Snow